Wind_Speed
20 20 19 19 18 19 19 19 19 18 17 16 17 16 16 16 16 15 15 15 15 15 14 15 15 15 16 16 16 16 16 16 15 15 16 16 16 16 15 15 15 16 17 16
20 21 21 20 20 20 20 20 20 19 18 17 17 17 17 16 16 15 15 15 15 15 15 15 15 15 16 16 16 16 16 16 15 15 15 15 16 16 15 15 16 16 16 16
22 21 21 21 20 21 21 20 20 20 18 18 18 17 17 17 17 16 16 16 16 15 15 15 15 15 15 15 16 16 16 16 16 15 15 15 15 15 16 16 15 15 16 15
23 23 24 22 20 20 21 20 20 19 19 18 17 17 17 17 17 17 17 16 16 16 16 15 15 15 15 15 15 16 16 15 15 16 16 16 15 14 14 15 15 15 15 15
25 25 24 22 21 21 21 21 20 20 19 18 18 18 18 17 17 16 16 16 16 17 16 15 15 15 15 15 15 15 15 14 15 15 14 14 14 14 14 15 15 15 14 14
26 26 26 24 22 21 21 21 20 21 20 20 19 18 19 18 17 17 16 15 15 16 16 15 15 15 15 14 14 14 14 14 14 14 14 14 14 14 14 14 14 14 14 14
27 27 27 25 23 23 23 22 21 21 21 21 20 19 19 18 18 17 17 16 16 16 16 16 15 15 14 14 13 14 14 14 14 14 14 14 14 14 14 14 14 14 14 14
27 28 27 25 25 24 24 23 22 23 22 22 21 20 19 18 18 18 18 17 17 16 16 16 16 16 15 15 14 14 15 14 14 15 15 15 15 14 14 14 14 14 14 14
28 27 26 26 26 26 25 24 23 23 22 22 22 22 20 20 19 19 19 18 17 17 17 17 17 17 16 16 16 16 15 15 15 16 16 15 15 15 15 14 14 14 14 15
27 27 27 27 27 26 26 25 24 24 23 24 23 23 22 21 20 20 20 19 19 18 18 18 17 17 17 17 17 16 16 16 16 17 17 17 16 16 15 15 15 16 15 15
27 27 27 27 26 26 25 25 24 24 25 24 24 24 23 22 21 21 21 20 20 19 19 19 18 18 18 18 17 18 18 17 17 18 18 18 17 17 17 17 17 17 16 16
27 27 27 26 26 26 26 25 25 25 25 26 25 24 24 23 22 22 22 21 21 20 20 20 20 19 19 19 19 19 18 18 18 18 18 19 18 18 18 18 18 18 18 18
28 27 27 26 26 26 25 24 25 25 25 25 24 24 23 23 23 23 22 22 22 22 21 21 21 21 20 20 20 20 19 19 19 19 19 19 19 19 19 19 19 20 20 20
28 28 28 28 27 27 26 25 25 25 25 26 25 25 24 24 23 23 23 23 23 23 22 22 22 22 22 22 22 21 21 20 20 20 20 21 20 20 21 21 22 22 22 21
28 28 28 29 29 28 27 27 27 27 26 26 26 27 26 25 24 23 23 23 23 23 23 22 21 22 22 23 23 23 23 22 22 21 21 21 21 22 22 22 23 24 24 24
27 28 28 28 28 28 28 27 27 27 27 27 28 27 27 26 26 25 25 25 24 24 23 23 22 22 23 23 24 24 24 24 23 23 22 22 22 23 23 24 24 25 25 25
27 27 28 27 27 27 26 27 27 28 28 28 28 28 28 27 27 27 27 26 26 25 25 25 25 24 24 25 25 25 25 25 24 24 25 25 25 25 25 25 26 26 26 26
27 27 27 26 26 27 26 27 28 28 29 29 29 29 29 29 28 28 28 28 27 26 26 26 26 26 26 27 27 26 26 26 25 25 25 25 25 25 25 25 25 26 26 26
26 27 27 26 27 27 27 28 28 28 29 30 30 30 30 30 30 30 29 29 29 28 28 28 28 27 27 28 28 28 27 27 26 26 26 26 25 25 25 26 26 26 26 27
25 25 26 27 28 28 27 27 27 27 28 29 29 29 29 29 30 30 31 31 30 30 29 29 29 28 28 29 29 29 28 28 27 27 27 27 27 27 27 26 26 26 27 27
24 24 26 27 27 27 26 26 26 26 26 28 28 28 28 29 30 30 31 31 30 30 30 30 30 29 29 29 29 30 29 29 29 28 28 28 28 28 28 27 27 27 27 27
24 25 25 26 26 26 26 26 26 27 27 27 28 28 29 30 30 30 31 31 30 30 30 30 30 31 31 31 30 31 30 30 30 30 30 30 29 29 29 29 29 29 29 28
24 25 25 26 26 26 26 26 27 28 28 28 28 28 29 29 30 30 30 30 29 30 30 31 31 31 31 31 31 31 31 31 31 31 31 31 31 31 30 30 29 29 29 28
24 24 25 26 26 26 26 26 26 27 27 28 28 28 28 29 29 29 30 30 30 30 31 31 32 32 32 32 32 31 31 31 31 31 31 31 31 31 31 30 29 29 28 28
24 24 25 25 26 26 26 27 26 26 27 27 28 28 28 29 29 29 29 29 30 30 30 30 31 32 32 32 31 31 31 31 31 31 31 31 31 31 30 29 29 28 28 28
24 24 25 26 26 26 27 27 26 26 27 27 27 27 28 28 28 28 28 28 29 30 30 31 31 30 30 30 30 30 30 31 30 30 30 30 30 30 30 30 29 29 29 29
24 24 25 25 25 25 26 26 27 26 26 26 26 26 27 27 27 27 27 28 28 29 29 30 30 29 29 29 29 29 30 30 30 30 30 29 29 29 29 29 29 29 29 30
Wind_Direction
261 260 261 262 263 264 265 267 269 272 275 275 273 276 277 274 272 269 265 262 262 263 264 264 264 264 265 263 261 261 261 261 262 262 260 259 258 257 259 262 263 266 268 269
262 260 261 262 263 265 266 267 268 269 272 273 273 275 273 272 270 267 264 262 263 264 265 265 265 266 264 263 262 262 262 261 263 263 262 262 259 258 260 262 264 267 269 269
264 264 263 263 265 266 266 265 267 268 269 270 273 272 271 270 267 263 262 262 262 264 266 268 265 265 265 262 260 261 261 258 259 261 261 261 261 259 260 262 265 265 268 269
265 264 263 266 265 265 265 264 265 265 266 268 270 271 271 269 267 264 263 261 261 262 264 267 263 263 265 262 260 261 261 258 256 259 260 259 260 261 264 264 266 267 268 267
265 266 266 266 266 266 264 262 262 262 262 263 265 267 267 267 265 264 262 261 260 260 262 264 262 262 263 262 260 260 259 260 260 257 256 259 263 265 266 265 268 268 266 265
264 266 266 266 265 263 262 261 260 260 260 260 263 265 265 264 262 261 259 259 259 258 260 261 262 262 263 260 259 257 256 257 259 258 260 262 264 266 266 264 267 265 266 268
263 265 265 266 264 262 262 263 260 259 258 258 263 264 262 262 260 257 255 257 257 258 258 257 259 260 259 258 257 256 256 257 259 261 262 263 265 266 264 265 265 263 265 268
261 263 263 263 262 261 261 262 259 258 259 260 261 259 257 258 257 254 255 256 257 257 256 257 257 257 256 256 255 255 256 258 258 259 262 263 266 266 265 266 264 264 268 272
259 260 262 259 259 260 260 260 258 258 258 259 257 255 255 255 255 254 254 256 256 258 258 258 256 255 254 255 255 255 257 258 258 258 261 264 265 264 264 266 264 265 271 275
259 259 259 259 259 258 258 256 256 256 255 254 253 253 253 253 253 254 253 254 255 256 256 256 256 255 256 255 256 254 256 257 259 259 259 260 262 263 264 266 266 265 268 273
258 258 258 258 258 258 257 255 255 254 255 254 253 253 253 254 254 254 253 253 254 255 255 255 257 257 256 254 253 254 257 258 259 259 258 258 259 261 263 265 267 265 267 270
258 257 257 256 255 257 258 256 255 254 256 255 253 253 253 254 254 255 255 254 255 256 257 256 259 259 258 256 256 256 257 259 260 260 258 258 259 261 265 266 266 265 266 270
258 256 254 254 255 256 256 255 253 254 255 254 254 254 253 253 253 253 254 253 255 256 257 258 259 258 257 256 256 258 259 258 259 260 259 259 260 262 265 267 268 267 268 269
257 255 254 254 255 255 254 253 253 255 256 255 254 254 254 255 255 254 253 254 255 256 257 257 256 256 255 255 255 257 259 259 260 260 260 262 263 264 265 266 266 266 267 268
257 256 255 254 255 255 255 255 254 255 256 254 253 253 254 254 255 254 254 254 255 257 257 257 257 254 254 255 256 257 259 260 261 261 261 262 264 265 266 267 266 266 266 266
257 258 255 254 255 254 254 253 253 254 255 253 251 252 252 253 254 254 254 254 255 256 257 257 258 256 254 255 255 256 258 259 260 261 263 264 265 266 267 267 267 267 267 267
259 258 256 255 254 254 254 252 253 254 254 253 251 251 252 253 253 254 253 254 255 255 256 257 259 258 255 255 255 256 258 258 260 261 263 266 268 268 267 266 265 266 267 268
260 259 256 254 253 253 253 254 256 255 254 254 252 251 252 252 254 255 255 254 255 256 258 259 260 259 258 257 256 256 257 259 261 262 264 267 268 268 268 268 268 270 270 271
259 258 255 252 254 255 256 257 258 256 255 254 253 252 253 253 253 254 256 256 257 258 259 259 260 261 260 258 256 255 256 258 260 261 263 265 267 268 269 270 271 272 272 271
259 258 255 254 255 256 259 259 257 256 256 254 254 254 254 253 254 256 256 256 256 256 257 259 259 260 259 258 256 255 256 259 261 262 263 264 267 268 269 270 271 272 273 274
257 258 255 253 254 256 258 258 257 256 257 256 255 256 256 255 256 256 256 255 254 255 256 256 257 259 259 258 257 256 256 259 261 262 264 265 267 268 268 269 270 271 273 273
256 256 255 253 254 256 257 258 258 257 259 258 257 257 258 258 257 257 257 255 255 255 254 255 256 257 258 259 259 258 258 258 260 262 263 264 266 267 268 270 270 272 272 272
258 258 257 255 256 257 258 259 259 259 259 260 259 259 258 258 257 258 257 256 256 256 256 256 256 258 258 258 257 257 258 258 260 261 262 264 265 266 268 270 270 271 271 272
261 261 259 257 258 260 261 261 260 259 259 260 260 259 259 259 259 258 257 256 257 258 258 258 257 258 259 259 258 257 257 258 260 261 262 264 265 266 268 268 268 269 270 271
263 262 259 258 260 261 261 261 259 259 260 260 260 260 260 259 259 258 258 257 257 257 258 259 259 260 260 259 258 257 257 259 261 262 264 265 266 267 266 266 267 267 268 270
262 262 260 258 259 261 262 262 261 261 260 260 260 260 260 259 259 258 258 258 257 258 259 260 260 259 257 257 257 257 259 260 261 263 264 265 265 265 265 265 266 267 268 270
262 262 260 257 257 261 263 263 261 261 261 259 259 259 260 260 258 257 258 258 258 259 259 259 259 257 256 255 256 258 259 260 261 262 262 263 264 263 264 264 266 268 269 271
Height
5813 5813 5813 5814 5814 5814 5814 5815 5815 5815 5815 5814 5813 5813 5812 5812 5812 5812 5812 5812 5813 5813 5814 5814 5815 5815 5816 5816 5817 5818 5818 5819 5819 5820 5820 5820 5820 5821 5821 5821 5821 5821 5821 5821
5807 5808 5807 5808 5809 5809 5809 5809 5809 5810 5810 5809 5808 5808 5808 5807 5807 5808 5808 5808 5809 5809 5810 5810 5810 5811 5811 5812 5812 5813 5814 5814 5815 5815 5815 5816 5816 5816 5816 5817 5817 5817 5817 5816
5802 5802 5802 5802 5804 5803 5804 5804 5804 5804 5805 5804 5803 5803 5803 5803 5803 5803 5803 5804 5804 5805 5805 5805 5806 5806 5807 5807 5808 5809 5809 5810 5810 5811 5811 5811 5812 5812 5812 5812 5812 5812 5812 5812
5795 5796 5796 5800 5798 5798 5798 5798 5798 5798 5798 5798 5798 5798 5798 5798 5798 5798 5799 5799 5800 5800 5801 5801 5802 5802 5802 5803 5804 5804 5805 5805 5806 5807 5807 5807 5807 5808 5808 5808 5808 5807 5807 5807
5788 5788 5789 5791 5792 5791 5791 5791 5792 5792 5793 5793 5793 5793 5792 5792 5793 5793 5793 5794 5795 5795 5796 5797 5797 5798 5798 5799 5799 5800 5800 5801 5801 5802 5803 5803 5803 5803 5803 5803 5803 5803 5803 5803
5781 5781 5783 5786 5785 5784 5785 5785 5786 5786 5786 5787 5787 5787 5788 5787 5787 5788 5788 5789 5790 5791 5791 5792 5792 5793 5794 5794 5795 5796 5796 5797 5798 5798 5798 5799 5799 5799 5799 5799 5799 5799 5799 5799
5774 5774 5775 5777 5778 5778 5780 5781 5780 5779 5780 5780 5780 5782 5782 5782 5782 5782 5783 5784 5785 5786 5786 5787 5788 5788 5789 5790 5791 5791 5792 5793 5793 5794 5794 5795 5795 5795 5795 5795 5795 5795 5795 5795
5766 5767 5770 5770 5770 5771 5772 5772 5772 5772 5773 5773 5774 5775 5775 5776 5776 5777 5778 5778 5779 5780 5781 5782 5783 5784 5784 5785 5786 5787 5787 5788 5789 5790 5790 5790 5791 5791 5791 5791 5791 5791 5791 5790
5759 5761 5761 5761 5762 5762 5763 5764 5765 5765 5766 5766 5767 5768 5769 5769 5770 5771 5772 5773 5774 5775 5776 5776 5777 5778 5779 5780 5781 5782 5783 5783 5784 5785 5785 5786 5786 5786 5786 5787 5787 5787 5786 5786
5750 5752 5752 5753 5753 5754 5755 5756 5757 5758 5759 5759 5760 5761 5762 5762 5763 5765 5766 5767 5768 5769 5770 5771 5772 5773 5774 5775 5776 5777 5778 5779 5779 5780 5780 5781 5781 5782 5782 5782 5782 5782 5782 5781
5742 5743 5744 5744 5745 5746 5747 5748 5749 5750 5751 5752 5753 5754 5755 5756 5757 5758 5759 5760 5761 5763 5764 5765 5766 5767 5768 5769 5770 5771 5772 5773 5774 5774 5775 5775 5776 5777 5777 5777 5777 5777 5777 5776
5734 5735 5735 5736 5737 5738 5740 5741 5742 5743 5743 5744 5745 5746 5747 5748 5750 5751 5752 5753 5755 5756 5757 5759 5760 5761 5762 5763 5764 5765 5766 5767 5768 5769 5769 5770 5770 5771 5771 5771 5771 5771 5771 5771
5724 5725 5726 5728 5729 5731 5732 5733 5734 5735 5736 5737 5738 5738 5740 5741 5742 5743 5745 5746 5748 5749 5751 5752 5753 5755 5756 5757 5758 5759 5760 5761 5762 5763 5763 5764 5764 5765 5765 5765 5765 5765 5765 5765
5715 5716 5718 5719 5721 5722 5723 5725 5726 5727 5728 5729 5730 5731 5732 5733 5735 5736 5738 5739 5741 5742 5743 5745 5746 5748 5749 5750 5751 5753 5754 5754 5755 5756 5757 5757 5758 5758 5758 5758 5759 5759 5759 5758
5706 5707 5709 5710 5712 5713 5714 5716 5718 5719 5719 5720 5722 5723 5724 5726 5727 5729 5730 5732 5733 5735 5736 5737 5739 5740 5741 5743 5744 5745 5747 5748 5748 5749 5750 5750 5750 5751 5751 5751 5751 5751 5751 5751
5697 5698 5700 5701 5703 5704 5706 5707 5708 5710 5711 5712 5713 5714 5716 5718 5720 5722 5723 5725 5726 5727 5729 5730 5731 5733 5734 5735 5736 5738 5739 5740 5741 5742 5742 5743 5743 5743 5743 5743 5743 5743 5743 5743
5689 5690 5691 5693 5694 5695 5697 5698 5699 5701 5702 5703 5705 5706 5708 5710 5712 5713 5715 5717 5718 5720 5721 5722 5724 5724 5726 5727 5728 5730 5731 5732 5733 5733 5734 5734 5734 5734 5734 5734 5735 5735 5735 5734
5680 5681 5682 5684 5685 5687 5688 5689 5691 5692 5693 5694 5696 5698 5699 5701 5703 5705 5707 5708 5710 5711 5713 5714 5715 5716 5717 5718 5719 5721 5722 5723 5724 5725 5725 5726 5726 5726 5726 5726 5726 5725 5725 5725
5672 5673 5674 5676 5677 5678 5679 5681 5682 5683 5684 5685 5687 5688 5690 5692 5694 5696 5697 5699 5701 5703 5704 5705 5706 5707 5708 5709 5710 5712 5713 5714 5715 5716 5717 5717 5717 5717 5717 5717 5717 5716 5716 5715
5664 5665 5666 5667 5668 5669 5670 5671 5673 5674 5675 5676 5677 5679 5681 5683 5684 5686 5688 5690 5691 5693 5694 5695 5697 5698 5699 5700 5701 5702 5704 5705 5706 5707 5707 5708 5708 5708 5708 5708 5708 5707 5707 5706
5656 5657 5657 5659 5660 5661 5661 5662 5663 5665 5666 5667 5668 5670 5671 5673 5674 5676 5677 5679 5681 5683 5684 5685 5687 5688 5689 5690 5691 5693 5694 5695 5697 5697 5698 5698 5699 5699 5699 5699 5698 5698 5698 5697
5647 5648 5649 5650 5651 5652 5653 5653 5654 5656 5657 5658 5659 5660 5662 5663 5664 5665 5667 5669 5671 5672 5673 5675 5676 5678 5679 5680 5681 5682 5684 5685 5686 5687 5688 5688 5689 5689 5689 5689 5689 5688 5688 5687
5639 5640 5640 5641 5642 5643 5644 5645 5646 5647 5648 5649 5650 5651 5652 5653 5654 5655 5657 5659 5660 5661 5663 5665 5666 5667 5668 5669 5670 5672 5673 5675 5676 5677 5677 5678 5678 5679 5679 5679 5678 5678 5678 5677
5630 5631 5632 5633 5633 5634 5635 5636 5636 5637 5638 5639 5640 5641 5642 5643 5644 5645 5647 5648 5650 5651 5652 5654 5655 5656 5657 5658 5660 5661 5662 5664 5665 5666 5667 5667 5668 5668 5668 5668 5668 5667 5667 5667
5622 5622 5623 5624 5625 5625 5626 5626 5627 5628 5629 5630 5630 5631 5632 5633 5634 5635 5636 5638 5639 5640 5641 5643 5644 5645 5645 5647 5648 5650 5651 5652 5653 5654 5655 5656 5656 5656 5657 5657 5657 5657 5657 5657
5613 5614 5614 5615 5616 5616 5617 5617 5618 5619 5620 5620 5621 5622 5622 5623 5624 5625 5626 5627 5628 5629 5630 5631 5632 5633 5634 5636 5637 5638 5640 5641 5642 5643 5644 5645 5645 5645 5646 5646 5646 5646 5646 5646
5604 5605 5605 5606 5607 5608 5608 5609 5609 5610 5610 5611 5612 5612 5613 5614 5614 5615 5616 5617 5618 5619 5620 5621 5622 5623 5624 5625 5627 5628 5629 5630 5631 5632 5633 5634 5634 5635 5635 5636 5636 5636 5636 5635